Flag for Portugal Weather past 2 weeks in Faro, Portugal

Now
72 °F

Clear.


Feels Like: 76 °F
Forecast: 66 / 80 °F
Wind: No wind

Location: Faro / Aeroporto

Current Time: Aug 29, 2014 at 4:17:57 AM

Latest Report: Aug 29, 2014 at 3:30 AM


Visibility: 10 mi

Pressure: 30.01 "Hg

Humidity: 61%

Dew point: 57 °F

Location of FaroLocation

Historic Weather in Faro — Graph

°F

Faro temperature yesterday

Maximum temperature yesterday: 88 °F (at 8:00 PM)
Minimum temperature yesterday: 70 °F (at 7:00 AM)
Average temperature yesterday: 79 °F

Past Weeks' High & Low Weather Summary

 TemperatureHumidityPressure
High88 °F (Aug 26, 9:00 PM)88% (Aug 18, 5:00 AM)30.07 "Hg (Aug 18, 5:00 AM)
Low61 °F (Aug 19, 6:00 AM)18% (Aug 25, 9:00 PM)29.83 "Hg (Aug 17, 4:30 PM)
Average74 °F59%29.98 "Hg
* Reported Aug 14 3:00 AM — Aug 29 3:00 AM, Faro, Weather by CustomWeather, © 2014

Note: Actual official high and low records may vary slightly from our data, if they occured in-between our weather recording intervals... More about our weather records

Advertising

Faro weather history for previous 24 hours

 ConditionsComfort  
Time TempWeatherWind HumidityBarometerVisibility
3:00 AM
Aug 29
77 °FPassing clouds.3 mph44%30.01 "HgN/A
2:00 AM73 °FClear.8 mph61%30.01 "Hg10 mi
1:30 AM75 °FPassing clouds.6 mph57%30.01 "HgN/A
1:00 AM73 °FClear.2 mph65%30.01 "Hg10 mi
12:30 AM75 °FPassing clouds.5 mph65%30.01 "HgN/A
12:00 AM79 °FClear.7 mph51%30.01 "Hg10 mi
11:30 PM
Aug 28
81 °FPassing clouds.7 mph48%30.01 "HgN/A
11:00 PM81 °FClear.9 mph48%30.01 "Hg10 mi
10:30 PM81 °FClear.13 mph48%30.01 "Hg10 mi
10:00 PM82 °FClear.14 mph40%30.01 "Hg10 mi
9:30 PM82 °FClear.13 mph45%29.98 "Hg10 mi
9:00 PM84 °FSunny.13 mph45%29.98 "Hg10 mi
8:30 PM84 °FSunny.15 mph48%29.98 "Hg10 mi
8:00 PM88 °FSunny.16 mph40%29.95 "Hg10 mi
7:30 PM84 °FSunny.15 mph51%29.95 "Hg10 mi
7:00 PM79 °FSunny.13 mph65%29.95 "Hg10 mi
6:30 PM79 °FSunny.9 mph61%29.95 "Hg10 mi
6:00 PM79 °FSunny.10 mph61%29.98 "Hg10 mi
5:30 PM79 °FSunny.13 mph65%29.98 "Hg10 mi
5:00 PM81 °FSunny.16 mph62%29.98 "Hg10 mi
4:30 PM82 °FSunny.10 mph58%29.98 "Hg10 mi
4:00 PM81 °FSunny.12 mph62%29.98 "Hg10 mi
3:30 PM79 °FSunny.12 mph54%29.98 "Hg10 mi
3:00 PM81 °FSunny.13 mph54%30.01 "Hg10 mi
2:30 PM81 °FSunny.10 mph54%30.01 "Hg10 mi
2:00 PM79 °FSunny.10 mph58%30.01 "Hg10 mi
1:30 PM82 °FSunny.9 mph55%30.01 "Hg10 mi
1:00 PM79 °FSunny.10 mph61%30.01 "Hg10 mi
12:30 PM82 °FSunny.9 mph51%30.01 "Hg10 mi
12:00 PM81 °FSunny.9 mph54%30.01 "Hg10 mi
11:30 AM79 °FSunny.8 mph58%30.01 "Hg10 mi
11:00 AM79 °FSunny.8 mph58%30.01 "Hg10 mi
10:30 AM79 °FSunny.9 mph54%30.01 "Hg10 mi
10:00 AM81 °FSunny.8 mph42%29.98 "Hg10 mi
9:30 AM81 °FSunny.2 mph39%29.98 "Hg10 mi
9:00 AM79 °FPassing clouds.5 mph39%29.98 "HgN/A
8:30 AM77 °FPassing clouds.3 mph44%29.98 "HgN/A
8:00 AM72 °FSunny.No wind69%29.98 "Hg10 mi
7:30 AM70 °FClear.5 mph73%29.98 "Hg10 mi
7:00 AM70 °FClear.No wind64%29.95 "Hg10 mi
6:30 AM72 °FClear.2 mph78%29.95 "Hg10 mi
6:00 AM72 °FClear.3 mph73%29.95 "Hg10 mi
5:30 AM77 °FClear.No wind44%29.95 "Hg10 mi
5:00 AM75 °FClear.1 mph57%29.95 "Hg10 mi
4:30 AM72 °FPassing clouds.3 mph73%29.95 "HgN/A
4:00 AM73 °FClear.2 mph65%29.98 "Hg10 mi
Weather by CustomWeather, © 2014

See weather overviewHow to use our weather pages